200P/Larsen (2019)

Japanese version
Home page
Updated on December 9, 2019

---------------------------------------------------------------------

* Profile

* Pictures

* Orbital Elements

Epoch 2019 July 16.0 TT = JDT 2458680.5
T 2019 July 28.53625 TT                                 Williams
q   3.2972404            (2000.0)            P               Q
n   0.08993031     Peri.  133.98358     +0.97519195     -0.14011444
a   4.9339945      Node   234.80182     +0.08856837     +0.95648214
e   0.3317300      Incl.   12.10575     +0.20287018     +0.25594895
P  11.0
From 555 observations 1997 Nov. 3-2019 Nov. 5, mean residual 0".5.

* Magnitudes Graph

        m1 = 13.0 + 5 log d + 10.0 log r

        * Gray curve is:  m1 = -5 + 5 log d + 40 log r

---------------------------------------------------------------------

The orbital elements are published on M.P.E.C. 2019-V116.
The magnitudes graphs are made with Comet for Windows.

---------------------------------------------------------------------

Copyright(C) Seiichi Yoshida (comet@aerith.net). All rights reserved.